Weather History for Paso Robles, CA

Change the Weather History Date:

Friday, September 27, 2013

  Actual Average Record
Temperature  
Mean Temperature 60 °F 67 °F  
Max Temperature 81 °F 85 °F 108 °F (2010)
Min Temperature 38 °F 49 °F 38 °F (2013)
Degree Days  
Heating Degree Days 5 2  
Month to date heating degree days 10 17  
Since 1 July heating degree days 10 25  
Cooling Degree Days 0 4  
Month to date cooling degree days 190 149  
Year to date cooling degree days 1164 882  
Growing Degree Days 11 (Base 50)    
Moisture  
Dew Point 31 °F    
Average Humidity 42    
Maximum Humidity 70    
Minimum Humidity 13    
Precipitation  
Precipitation 0.00 in 0.01 in 0.54 in (1986)
Month to date precipitation 0.00 0.18  
Year to date precipitation 1.46 9.08  
Since 1 July precipitation T 0.29  
Sea Level Pressure  
Sea Level Pressure 30.03 in    
Wind  
Wind Speed 2 mph (North)    
Max Wind Speed 12 mph    
Max Gust Speed -    
Visibility 10 miles    
Events      
T = Trace of Precipitation, MM = Missing Value Source: NWS Daily Summary

Daily Weather History Graph

Daily Weather History Graph

Search for Another Location

Airport:

Trip Planner

Search our weather history database for the weather conditions in past years. The results will help you decide how hot, cold, wet, or windy it might be!

Date:

Astronomy

Sep. 27, 2013 Rise Set
Actual Time 6:54 AM PDT 6:51 PM PDT
Civil Twilight 6:29 AM PDT 7:16 PM PDT
Nautical Twilight 5:59 AM PDT 7:46 PM PDT
Astronomical Twilight 5:29 AM PDT 8:16 PM PDT
Moon 12:05 AM PDT (9/27) 2:23 PM PDT (9/27)
Length of Visible Light 12h 47m
Length of Day
11h 56m
Last Quarter, 44% of the Moon is Illuminated
Sep 27
Last Quarter
Oct 4
New
Oct 11
First Quarter
Oct 18
Full
Oct 26
Last Quarter

Hourly Weather History & Observations

Time (PDT) Temp. Dew Point Humidity Pressure Visibility Wind Dir Wind Speed Gust Speed Precip Events Conditions
12:53 AM 51.1 °F 35.1 °F 54% 29.98 in 10.0 mi NNW 3.5 mph - N/A   Clear
1:53 AM 50.0 °F 36.0 °F 59% 29.99 in 10.0 mi Calm Calm - N/A   Clear
2:53 AM 48.9 °F 35.1 °F 59% 30.00 in 10.0 mi Calm Calm - N/A   Clear
3:53 AM 43.0 °F 32.0 °F 65% 30.00 in 10.0 mi Calm Calm - N/A   Clear
4:53 AM 42.1 °F 33.1 °F 70% 30.01 in 10.0 mi Calm Calm - N/A   Clear
5:53 AM 41.0 °F 32.0 °F 70% 30.02 in 10.0 mi Calm Calm - N/A   Clear
6:53 AM 42.1 °F 32.0 °F 67% 30.04 in 10.0 mi Calm Calm - N/A   Clear
7:53 AM 43.0 °F 32.0 °F 65% 30.06 in 10.0 mi Calm Calm - N/A   Clear
8:53 AM 48.9 °F 33.1 °F 54% 30.07 in 10.0 mi Calm Calm - N/A   Clear
9:53 AM 57.0 °F 34.0 °F 42% 30.09 in 10.0 mi Calm Calm - N/A   Clear
10:53 AM 64.0 °F 34.0 °F 33% 30.08 in 10.0 mi Calm Calm - N/A   Clear
11:53 AM 69.1 °F 32.0 °F 25% 30.06 in 10.0 mi NNW 5.8 mph - N/A   Clear
12:53 PM 72.0 °F 28.9 °F 20% 30.05 in 10.0 mi Calm Calm - N/A   Clear
1:53 PM 75.9 °F 28.0 °F 17% 30.02 in 10.0 mi Calm Calm - N/A   Clear
2:53 PM 78.1 °F 27.0 °F 15% 30.00 in 10.0 mi Variable 5.8 mph - N/A   Clear
3:53 PM 79.0 °F 26.1 °F 14% 29.99 in 10.0 mi Calm Calm - N/A   Clear
4:53 PM 81.0 °F 25.0 °F 13% 29.97 in 10.0 mi North 4.6 mph - N/A   Clear
5:53 PM 79.0 °F 26.1 °F 14% 29.97 in 10.0 mi ESE 6.9 mph - N/A   Clear
6:53 PM 73.9 °F 27.0 °F 18% 29.99 in 10.0 mi East 10.4 mph - N/A   Clear
7:53 PM 70.0 °F 28.9 °F 22% 30.02 in 10.0 mi North 5.8 mph - N/A   Clear
8:53 PM 64.9 °F 32.0 °F 29% 30.04 in 10.0 mi WNW 8.1 mph - N/A   Clear
9:53 PM 62.1 °F 33.1 °F 34% 30.05 in 10.0 mi WNW 6.9 mph - N/A   Clear
10:53 PM 57.9 °F 34.0 °F 41% 30.06 in 10.0 mi North 3.5 mph - N/A   Clear
11:53 PM 55.0 °F 36.0 °F 49% 30.06 in 10.0 mi Calm Calm - N/A   Clear